HYSIS

Last updated on Thu Jul 03 2025 00:02:30 GMT+0000 (Coordinated Universal Time)

1 43719U 18096A 25183.62383150 .00000908 13000-9 12412-3 0 9998 2 43719 98.0297 247.1792 0001653 125.5913 234.5452 14.78625824355762
UTC large
Height (km)
Speed (km/s)
/
Latitude / Longitude
Inclination (degrees)
Orbital Period (minutes)
Azimuth
Elevation
Range (km)
Doppler Factor

Next 0 passes for location: London (51.5072 / 0.1276)

Sorry there are no passes over London.